Location: *
(37.5724°S, 58.0067°E)
Time: 10:25:35
(UTC+00:00)

Cosmos 1943 Rocket - Visible Passes

Search period start: 17 January 2021 00:00
Search period end: 27 January 2021 00:00
Orbit: 811 x 844 km, 71.0° (Epoch: 16 January)

Date Brightness Start Highest point End Pass type
(mag) Time Alt. Az. Time Alt. Az. Time Alt. Az.
17 Jan 4.2 17:25:27 10° SW 17:29:35 22° W 17:33:40 10° NNW visible
18 Jan 4.0 17:05:59 10° SW 17:10:25 25° WNW 17:14:49 10° NNW visible
19 Jan 3.9 16:46:34 10° SW 16:51:17 29° WNW 16:55:56 10° NNW visible
20 Jan 3.7 16:27:11 10° SW 16:32:06 33° WNW 16:36:59 10° NNW visible
21 Jan 3.5 16:07:49 10° SW 16:12:56 38° WNW 16:18:00 10° N visible
22 Jan 3.3 15:48:30 10° SW 15:53:46 44° WNW 15:58:57 10° N visible
